DW5948 Weather Reports


Display with metric or nautical units.
time (UTC)temp
F
wind
direction
speed
MPH
gust
MPH
rain 1hr
in
rain 24hr
in
rain mn
in
humidity
%
barometer
mb
20260504171515 79 154 4.0 10.0 0.00 0.00 0.00 63 1014.9
20260504081502 58 110 0.0 0.0 0.00 0.00 0.00 85 1016.3
20260504044540 62 139 0.0 0.0 0.00 0.00 0.00 74 1018.4
20260504043033 62 139 0.0 0.0 0.00 0.00 0.00 74 1018.5
20260504041532 63 139 0.0 0.0 0.00 0.00 0.00 73 1018.6
20260504040032 63 139 0.0 2.0 0.00 0.00 0.00 73 1018.5
20260504034551 65 169 0.0 2.0 0.00 0.00 0.00 69 1018.4
20260504033031 66 132 0.0 2.0 0.00 0.00 0.00 65 1018.6
20260504031531 67 153 0.0 2.0 0.00 0.00 0.00 64 1018.3
20260504030040 67 134 1.0 4.0 0.00 0.00 0.00 63 1018.3
20260504024529 68 122 1.0 5.0 0.00 0.00 0.00 61 1018.2
20260504023028 68 186 1.0 5.0 0.00 0.00 0.00 60 1018.1
20260504021527 69 176 0.0 5.0 0.00 0.00 0.00 58 1018.0
20260504020027 70 139 2.0 5.0 0.00 0.00 0.00 57 1017.9
20260504014536 70 144 1.0 6.0 0.00 0.00 0.00 55 1017.7
20260504013026 71 176 1.0 7.0 0.00 0.00 0.00 54 1017.7
20260504011525 72 124 3.0 7.0 0.00 0.00 0.00 53 1017.8
20260504010028 72 155 1.0 4.0 0.00 0.00 0.00 53 1017.6
20260504004524 73 158 1.0 6.0 0.00 0.00 0.00 52 1017.6
20260504003030 74 150 0.0 6.0 0.00 0.00 0.00 51 1017.7
20260504001522 74 160 2.0 7.0 0.00 0.00 0.00 49 1017.6
20260504000023 76 151 3.0 7.0 0.00 0.00 0.00 48 1017.6
20260503234535 77 126 3.0 7.0 0.00 0.00 0.00 46 1017.7
20260503233021 78 168 2.0 8.0 0.00 0.00 0.00 43 1017.6
20260503231518 79 124 1.0 7.0 0.00 0.00 0.00 39 1017.9
20260503230022 80 126 1.0 4.0 0.00 0.00 0.00 39 1017.8
20260503224516 81 156 2.0 9.0 0.00 0.00 0.00 36 1018.1
20260503223017 80 176 1.0 6.0 0.00 0.00 0.00 37 1018.2
20260503221513 80 179 3.0 7.0 0.00 0.00 0.00 38 1018.4
20260503220013 81 136 1.0 6.0 0.00 0.00 0.00 40 1018.5
20260503214513 81 126 2.0 6.0 0.00 0.00 0.00 37 1018.5
20260503213009 82 72 0.0 6.0 0.00 0.00 0.00 39 1018.9
20260503211507 81 129 1.0 7.0 0.00 0.00 0.00 35 1019.1
20260503210006 82 140 1.0 5.0 0.00 0.00 0.00 38 1019.3
20260503204504 82 276 3.0 6.0 0.00 0.00 0.00 37 1019.4
20260503203002 82 123 2.0 7.0 0.00 0.00 0.00 36 1019.7
20260503201605 82 112 0.0 6.0 0.00 0.00 0.00 40 1019.8
20260503200101 82 186 1.0 5.0 0.00 0.00 0.00 41 1020.3
20260503194553 81 314 2.0 7.0 0.00 0.00 0.00 38 1020.4
20260503193055 81 131 1.0 4.0 0.00 0.00 0.00 44 1020.7
20260503191556 81 141 2.0 6.0 0.00 0.00 0.00 43 1020.9
20260503190048 81 105 1.0 7.0 0.00 0.00 0.00 40 1021.2
20260503184555 81 224 2.0 7.0 0.00 0.00 0.00 41 1021.5
20260503183101 80 312 1.0 8.0 0.00 0.00 0.00 39 1021.6
20260503181545 81 141 2.0 6.0 0.00 0.00 0.00 41 1021.9
20260503180046 80 226 0.0 5.0 0.00 0.00 0.00 47 1022.1
20260503174541 80 122 1.0 4.0 0.00 0.00 0.00 46 1022.4
20260503173107 80 193 3.0 6.0 0.00 0.00 0.00 41 1022.7